Weather History for Stampede Pass, WA

Change the Weather History Date:

Monday, October 10, 2011

  Actual Average Record
Temperature  
Mean Temperature 44 °F -  
Max Temperature 46 °F 47 °F 64 °F (2006)
Min Temperature 42 °F 36 °F 30 °F (2001)
Degree Days  
Heating Degree Days 21    
Moisture  
Dew Point 43 °F    
Average Humidity 98    
Maximum Humidity 100    
Minimum Humidity 93    
Precipitation  
Precipitation 0.53 in - - ()
Sea Level Pressure  
Sea Level Pressure 29.65 in    
Wind  
Wind Speed 3 mph (West)    
Max Wind Speed 15 mph    
Max Gust Speed 31 mph    
Visibility 3 miles    
Events Fog , Rain    
Averages and records for this station are not official NWS values.
T = Trace of Precipitation, MM = Missing Value Source: NWS Daily Summary

Daily Weather History Graph

Daily Weather History Graph

Search for Another Location

Airport:

Trip Planner

Search our weather history database for the weather conditions in past years. The results will help you decide how hot, cold, wet, or windy it might be!

Date:

Astronomy

Oct. 10, 2011 Rise Set
Actual Time 7:16 AM PDT 6:27 PM PDT
Civil Twilight 6:45 AM PDT 6:58 PM PDT
Nautical Twilight 6:10 AM PDT 7:33 PM PDT
Astronomical Twilight 5:34 AM PDT 8:08 PM PDT
Moon 5:33 PM PDT (10/10) 6:01 AM PDT (10/10)
Length of Visible Light 12h 12m
Length of Day
11h 11m
Waxing Gibbous, 98% of the Moon is Illuminated
Oct 10
Waxing Gibbous
Oct 11
Full
Oct 19
Last Quarter
Oct 26
New
Nov 2
First Quarter

Hourly Weather History & Observations

Time (PDT) Temp. Windchill Dew Point Humidity Pressure Visibility Wind Dir Wind Speed Gust Speed Precip Events Conditions
12:23 AM 42.8 °F 41.1 °F 42.8 °F 100% 29.84 in 2.0 mi WSW 3.5 mph - N/A   Overcast
12:25 AM 42.8 °F - 42.8 °F 100% 29.84 in 1.2 mi Calm Calm - N/A   Overcast
12:32 AM 42.8 °F - 41.0 °F 93% 29.83 in 0.2 mi Calm Calm - N/A Fog Fog
12:56 AM 42.1 °F - 41.0 °F 96% 29.83 in 0.8 mi Calm Calm - N/A   Overcast
1:01 AM 42.8 °F - 42.8 °F 100% 29.82 in 4.0 mi Calm Calm - N/A   Overcast
1:56 AM 42.1 °F 40.2 °F 41.0 °F 96% 29.80 in 7.0 mi East 3.5 mph - N/A   Overcast
2:16 AM 42.8 °F - 41.0 °F 93% 29.80 in 2.5 mi Calm Calm - N/A   Overcast
2:19 AM 42.8 °F - 41.0 °F 93% 29.79 in 1.0 mi Calm Calm - N/A   Overcast
2:23 AM 42.8 °F - 41.0 °F 93% 29.79 in 0.8 mi Calm Calm - N/A   Overcast
2:56 AM 42.1 °F - 42.1 °F 100% 29.77 in 0.2 mi Calm Calm - N/A Fog Fog
3:12 AM 42.8 °F - 42.8 °F 100% 29.78 in 0.2 mi Calm Calm - N/A Fog Fog
3:20 AM 42.8 °F - 42.8 °F 100% 29.77 in 0.2 mi Calm Calm - N/A Fog Fog
3:42 AM 42.8 °F - 42.8 °F 100% 29.76 in 0.2 mi Calm Calm - N/A Fog Fog
3:56 AM 42.1 °F 40.2 °F 42.1 °F 100% 29.75 in 0.2 mi Variable 3.5 mph - N/A Fog Fog
4:56 AM 42.1 °F 40.2 °F 42.1 °F 100% 29.71 in 0.2 mi Variable 3.5 mph - N/A Fog Fog
5:22 AM 42.8 °F 40.1 °F 42.8 °F 100% 29.70 in 0.5 mi Variable 4.6 mph - N/A Fog Fog
5:43 AM 42.8 °F 40.1 °F 42.8 °F 100% 29.69 in 0.5 mi Variable 4.6 mph - N/A Fog Fog
5:47 AM 42.8 °F 40.1 °F 42.8 °F 100% 29.69 in 0.2 mi Variable 4.6 mph - N/A Fog Fog
5:56 AM 42.1 °F 39.2 °F 42.1 °F 100% 29.69 in 0.2 mi Variable 4.6 mph - N/A Fog Fog
6:12 AM 42.8 °F 41.1 °F 42.8 °F 100% 29.69 in 0.2 mi Variable 3.5 mph - N/A Fog Fog
6:56 AM 42.1 °F 39.2 °F 42.1 °F 100% 29.67 in 0.2 mi Variable 4.6 mph - N/A Fog Fog
7:56 AM 42.1 °F 39.2 °F 42.1 °F 100% 29.66 in 0.2 mi Variable 4.6 mph - 0.01 in Fog , Rain Light Rain
8:56 AM 42.1 °F 38.4 °F 42.1 °F 100% 29.63 in 0.2 mi Variable 5.8 mph - 0.02 in Fog Fog
9:56 AM 42.1 °F 37.1 °F 42.1 °F 100% 29.62 in 0.2 mi East 8.1 mph - 0.03 in Fog , Rain Light Rain
10:56 AM 43.0 °F 40.3 °F 42.1 °F 97% 29.62 in 0.2 mi Variable 4.6 mph - 0.05 in Fog , Rain Light Rain
11:56 AM 42.1 °F 38.4 °F 42.1 °F 100% 29.60 in 0.2 mi Variable 5.8 mph - 0.02 in Fog , Rain Light Rain
12:56 PM 43.0 °F 41.3 °F 43.0 °F 100% 29.62 in 0.2 mi Variable 3.5 mph - 0.07 in Fog , Rain Light Rain
1:56 PM 44.1 °F - 44.1 °F 100% 29.60 in 0.2 mi Calm Calm - 0.02 in Fog Fog
2:13 PM 42.8 °F - 42.8 °F 100% 29.60 in 0.8 mi Calm Calm - N/A   Overcast
2:32 PM 44.6 °F - 44.6 °F 100% 29.60 in 0.2 mi Calm Calm - 0.00 in Fog Fog
2:56 PM 45.0 °F - 44.1 °F 97% 29.59 in 0.2 mi Calm Calm - 0.00 in Fog Fog
3:28 PM 44.6 °F 43.1 °F 44.6 °F 100% 29.58 in 1.0 mi ESE 3.5 mph - N/A   Overcast
3:32 PM 44.6 °F 43.1 °F 44.6 °F 100% 29.57 in 2.0 mi East 3.5 mph - N/A   Overcast
3:40 PM 44.6 °F 43.1 °F 44.6 °F 100% 29.58 in 1.8 mi East 3.5 mph - N/A   Overcast
3:45 PM 44.6 °F - 44.6 °F 100% 29.58 in 1.2 mi Calm Calm - 0.00 in Rain Light Rain
3:56 PM 44.1 °F - 44.1 °F 100% 29.58 in 1.2 mi Calm Calm - 0.04 in Rain Rain
3:59 PM 44.6 °F - 44.6 °F 100% 29.58 in 2.0 mi Calm Calm - 0.00 in Rain Light Rain
4:10 PM 44.6 °F - 44.6 °F 100% 29.58 in 1.8 mi Calm Calm - 0.00 in Rain Light Rain
4:15 PM 44.6 °F - 44.6 °F 100% 29.58 in 1.0 mi Calm Calm - 0.01 in Rain Light Rain
4:22 PM 46.4 °F - 44.6 °F 93% 29.57 in 1.5 mi Calm Calm - 0.02 in Rain Light Rain
4:24 PM 46.4 °F - 44.6 °F 93% 29.57 in 3.0 mi Calm Calm - 0.02 in Rain Light Rain
4:32 PM 46.4 °F 45.2 °F 44.6 °F 93% 29.57 in 2.5 mi Variable 3.5 mph - 0.03 in Rain Light Rain
4:36 PM 46.4 °F 44.3 °F 44.6 °F 93% 29.58 in 1.0 mi Variable 4.6 mph - 0.05 in Rain Rain
4:42 PM 44.6 °F 41.4 °F 44.6 °F 100% 29.59 in 0.2 mi Variable 5.8 mph - 0.08 in Fog , Rain Rain
4:51 PM 44.6 °F 38.4 °F 44.6 °F 100% 29.59 in 0.5 mi West 12.7 mph 23.0 mph 0.12 in Fog , Rain Rain
4:56 PM 45.0 °F 40.6 °F 44.1 °F 97% 29.59 in 1.5 mi West 8.1 mph 26.5 mph 0.14 in Rain Light Rain
5:00 PM 44.6 °F 39.7 °F 44.6 °F 100% 29.59 in 3.0 mi West 9.2 mph 26.5 mph 0.00 in Rain Light Rain
5:56 PM 44.1 °F 38.1 °F 43.0 °F 96% 29.60 in 10.0 mi West 11.5 mph 27.6 mph 0.00 in   Overcast
6:43 PM 42.8 °F 37.0 °F 42.8 °F 100% 29.62 in 2.5 mi WNW 10.4 mph 23.0 mph 0.02 in Rain Light Rain
6:52 PM 42.8 °F 36.6 °F 42.8 °F 100% 29.62 in 7.0 mi West 11.5 mph 27.6 mph 0.02 in Rain Light Rain
6:56 PM 43.0 °F 36.8 °F 42.1 °F 97% 29.63 in 9.0 mi West 11.5 mph 27.6 mph 0.02 in Rain Light Rain
7:14 PM 42.8 °F 36.6 °F 41.0 °F 93% 29.63 in 10.0 mi West 11.5 mph 31.1 mph 0.00 in   Overcast
7:17 PM 42.8 °F 35.4 °F 41.0 °F 93% 29.62 in 10.0 mi West 15.0 mph 31.1 mph 0.00 in   Overcast
7:31 PM 42.8 °F 35.8 °F 41.0 °F 93% 29.62 in 10.0 mi West 13.8 mph 25.3 mph 0.00 in   Overcast
7:56 PM 42.1 °F 35.7 °F 41.0 °F 96% 29.64 in 10.0 mi WNW 11.5 mph 24.2 mph 0.00 in   Overcast
8:56 PM 42.1 °F 38.4 °F 42.1 °F 100% 29.63 in 2.5 mi Variable 5.8 mph - N/A   Overcast
9:03 PM 42.8 °F 40.1 °F 42.8 °F 100% 29.62 in 1.2 mi Variable 4.6 mph - N/A   Overcast
9:05 PM 42.8 °F 40.1 °F 42.8 °F 100% 29.62 in 1.5 mi Variable 4.6 mph - N/A   Overcast
9:10 PM 42.8 °F 38.6 °F 42.8 °F 100% 29.62 in 1.2 mi Variable 6.9 mph - N/A   Overcast
9:20 PM 42.8 °F - 42.8 °F 100% 29.63 in 0.8 mi Calm Calm - N/A   Overcast
9:41 PM 42.8 °F 37.5 °F 41.0 °F 93% 29.63 in 4.0 mi WNW 9.2 mph - 0.01 in   Overcast
9:51 PM 42.8 °F 39.3 °F 41.0 °F 93% 29.63 in 10.0 mi WNW 5.8 mph - 0.01 in   Overcast
9:56 PM 42.1 °F 38.4 °F 41.0 °F 96% 29.63 in 10.0 mi Variable 5.8 mph - 0.01 in   Overcast
10:11 PM 42.8 °F - 41.0 °F 93% 29.62 in 10.0 mi Calm Calm - N/A   Overcast
10:19 PM 42.8 °F - 41.0 °F 93% 29.62 in 10.0 mi Calm Calm - N/A   Mostly Cloudy
10:56 PM 42.1 °F - 41.0 °F 96% 29.62 in 8.0 mi Calm Calm - 0.01 in Rain Light Rain
11:26 PM 42.8 °F - 41.0 °F 93% 29.61 in 4.0 mi Calm Calm - 0.04 in Rain Rain
11:56 PM 42.1 °F - 41.0 °F 96% 29.62 in 4.0 mi Calm Calm - 0.09 in Rain Light Rain